Location: Tucson
(32.2217°N, 110.9265°W)
Time: 00:55:25
(UTC-07:00)

OTV 5 (USA 277) - Visible Passes

Search period start: 17 June 2019 00:00
Search period end: 27 June 2019 00:00
Orbit: 310 x 325 km, 54.5° (Epoch: 08 May)

Date Brightness Start Highest point End Pass type
(mag) Time Alt. Az. Time Alt. Az. Time Alt. Az.
20 Jun ? 20:39:49 10° SSW 20:42:17 30° SE 20:44:46 10° ENE visible
20 Jun ? 22:15:34 10° WNW 22:16:42 12° NW 22:17:49 10° NNW visible
21 Jun ? 04:38:26 10° N 04:40:24 18° NE 04:42:22 10° E visible
21 Jun ? 20:54:14 10° SW 20:56:56 60° NW 20:59:40 10° NE visible
22 Jun ? 21:09:44 10° W 21:11:46 18° NW 21:13:49 10° N visible
23 Jun ? 03:34:28 10° NNE 03:35:28 11° NE 03:36:27 10° ENE visible
24 Jun ? 03:47:54 10° NNW 03:50:23 30° NE 03:52:50 10° ESE visible
24 Jun ? 20:04:24 10° WSW 20:06:53 31° NW 20:09:23 10° NNE visible
25 Jun ? 04:02:25 10° NW 04:05:08 65° SW 04:07:49 10° SSE visible
25 Jun ? 20:20:43 10° WNW 20:21:48 12° NW 20:22:52 10° NNW visible
26 Jun ? 02:43:30 10° N 02:43:57 12° N 02:43:57 12° N visible
